QPF
0.02 0.02 0.01 0.01 0.01 0.01 0.01 0.01 0.01 0.01 0.01 0.01 0.01 0.02 0.02 0.02 0.03 0.05 0.05 0.06 0.05 0.05 0.03 0.03 0.04 0.04 0.04 0.05 0.05 0.06 0.06 0.08 0.07 0.05 0.03 0.03 0.05 0.07 0.07 0.06 0.05 0.05 0.04
0.02 0.02 0.01 0.01 0.00 0.01 0.01 0.01 0.01 0.02 0.01 0.01 0.01 0.01 0.01 0.02 0.02 0.02 0.02 0.03 0.03 0.04 0.04 0.04 0.04 0.04 0.04 0.04 0.05 0.05 0.05 0.07 0.08 0.06 0.05 0.04 0.04 0.04 0.05 0.04 0.03 0.02 0.02
0.02 0.03 0.02 0.01 0.01 0.02 0.02 0.02 0.02 0.01 0.01 0.01 0.01 0.01 0.01 0.02 0.02 0.01 0.01 0.01 0.02 0.02 0.03 0.02 0.02 0.04 0.04 0.04 0.05 0.05 0.05 0.05 0.05 0.04 0.04 0.05 0.04 0.04 0.06 0.04 0.02 0.02 0.02
0.03 0.03 0.02 0.02 0.02 0.03 0.03 0.02 0.02 0.01 0.01 0.01 0.01 0.01 0.01 0.01 0.01 0.01 0.00 0.01 0.01 0.01 0.02 0.02 0.02 0.03 0.03 0.04 0.06 0.06 0.05 0.05 0.05 0.06 0.07 0.08 0.06 0.06 0.06 0.05 0.04 0.03 0.02
0.03 0.03 0.02 0.03 0.03 0.04 0.03 0.02 0.02 0.02 0.01 0.02 0.02 0.02 0.02 0.01 0.01 0.01 0.00 0.00 0.01 0.01 0.02 0.02 0.03 0.04 0.06 0.07 0.07 0.07 0.08 0.08 0.08 0.09 0.08 0.08 0.08 0.07 0.07 0.05 0.05 0.04 0.03
0.03 0.04 0.04 0.04 0.03 0.03 0.03 0.03 0.03 0.03 0.03 0.03 0.03 0.03 0.02 0.02 0.01 0.01 0.00 0.01 0.02 0.02 0.01 0.01 0.03 0.05 0.08 0.10 0.10 0.09 0.08 0.09 0.09 0.11 0.11 0.10 0.10 0.09 0.08 0.07 0.06 0.05 0.03
0.04 0.04 0.03 0.03 0.03 0.04 0.04 0.04 0.04 0.04 0.03 0.03 0.03 0.03 0.02 0.02 0.02 0.01 0.01 0.01 0.01 0.02 0.02 0.02 0.04 0.06 0.07 0.09 0.09 0.08 0.08 0.09 0.09 0.08 0.08 0.08 0.08 0.06 0.06 0.05 0.05 0.04 0.03
0.04 0.04 0.04 0.04 0.06 0.07 0.05 0.06 0.05 0.04 0.03 0.03 0.03 0.03 0.02 0.01 0.01 0.01 0.02 0.02 0.01 0.01 0.02 0.04 0.07 0.07 0.06 0.05 0.05 0.05 0.05 0.07 0.08 0.06 0.04 0.04 0.04 0.04 0.05 0.05 0.06 0.05 0.05
0.03 0.02 0.02 0.04 0.05 0.05 0.05 0.05 0.04 0.04 0.03 0.03 0.03 0.02 0.01 0.00 0.01 0.01 0.03 0.03 0.02 0.01 0.02 0.03 0.03 0.03 0.03 0.03 0.03 0.04 0.04 0.04 0.04 0.04 0.03 0.03 0.03 0.03 0.04 0.05 0.06 0.06 0.05
0.03 0.03 0.04 0.04 0.04 0.03 0.04 0.04 0.03 0.03 0.02 0.02 0.01 0.01 0.01 0.01 0.01 0.02 0.03 0.03 0.03 0.02 0.01 0.01 0.01 0.01 0.01 0.01 0.02 0.02 0.03 0.03 0.02 0.02 0.02 0.02 0.02 0.02 0.03 0.04 0.04 0.04 0.04
0.05 0.06 0.07 0.06 0.06 0.05 0.04 0.03 0.03 0.02 0.01 0.01 0.01 0.02 0.03 0.03 0.03 0.02 0.03 0.03 0.03 0.03 0.02 0.01 0.01 0.01 0.01 0.01 0.01 0.02 0.02 0.01 0.01 0.01 0.01 0.01 0.02 0.02 0.02 0.03 0.04 0.04 0.04
0.05 0.06 0.07 0.06 0.05 0.04 0.03 0.02 0.02 0.01 0.01 0.01 0.01 0.02 0.03 0.02 0.02 0.02 0.02 0.01 0.02 0.03 0.04 0.04 0.03 0.02 0.01 0.01 0.01 0.01 0.01 0.01 0.01 0.01 0.01 0.01 0.02 0.03 0.04 0.04 0.05 0.05 0.03
0.05 0.06 0.06 0.05 0.04 0.03 0.02 0.01 0.01 0.01 0.01 0.01 0.01 0.01 0.01 0.01 0.01 0.01 0.01 0.01 0.02 0.03 0.05 0.06 0.04 0.02 0.01 0.00 0.01 0.01 0.01 0.01 0.01 0.01 0.01 0.02 0.03 0.03 0.03 0.03 0.02 0.03 0.03
0.04 0.06 0.07 0.06 0.03 0.03 0.02 0.01 0.01 0.01 0.01 0.01 0.01 0.01 0.01 0.01 0.01 0.01 0.01 0.01 0.02 0.02 0.02 0.02 0.02 0.01 0.01 0.00 0.00 0.00 0.01 0.01 0.02 0.02 0.02 0.03 0.04 0.04 0.03 0.02 0.02 0.02 0.03
0.04 0.05 0.06 0.06 0.05 0.04 0.03 0.02 0.02 0.02 0.02 0.01 0.01 0.02 0.02 0.01 0.01 0.01 0.01 0.01 0.01 0.01 0.01 0.01 0.01 0.01 0.01 0.00 0.01 0.01 0.01 0.02 0.02 0.02 0.03 0.03 0.04 0.04 0.03 0.02 0.02 0.02 0.02
0.04 0.05 0.06 0.06 0.06 0.05 0.05 0.04 0.03 0.02 0.03 0.03 0.03 0.02 0.01 0.01 0.01 0.01 0.01 0.01 0.01 0.01 0.00 0.01 0.01 0.01 0.01 0.01 0.01 0.01 0.01 0.02 0.02 0.02 0.02 0.02 0.03 0.04 0.03 0.02 0.02 0.02 0.02
0.05 0.06 0.06 0.05 0.06 0.06 0.06 0.05 0.04 0.04 0.03 0.03 0.02 0.02 0.01 0.01 0.01 0.01 0.01 0.00 0.01 0.01 0.01 0.01 0.01 0.01 0.01 0.01 0.01 0.01 0.01 0.01 0.02 0.02 0.02 0.02 0.02 0.03 0.02 0.03 0.03 0.03 0.03
0.06 0.08 0.07 0.06 0.06 0.07 0.07 0.06 0.05 0.04 0.04 0.03 0.03 0.02 0.02 0.02 0.02 0.01 0.01 0.01 0.01 0.02 0.02 0.02 0.02 0.02 0.02 0.02 0.02 0.02 0.02 0.02 0.03 0.03 0.03 0.02 0.02 0.03 0.02 0.02 0.03 0.02 0.02
0.08 0.08 0.08 0.08 0.08 0.08 0.08 0.07 0.07 0.07 0.06 0.04 0.04 0.03 0.04 0.04 0.04 0.03 0.02 0.01 0.02 0.02 0.02 0.02 0.02 0.03 0.03 0.03 0.03 0.03 0.02 0.02 0.03 0.03 0.04 0.04 0.02 0.02 0.01 0.01 0.02 0.01 0.01
0.10 0.13 0.14 0.13 0.13 0.13 0.13 0.12 0.11 0.10 0.08 0.06 0.05 0.05 0.05 0.05 0.06 0.05 0.04 0.03 0.03 0.03 0.03 0.03 0.03 0.03 0.03 0.03 0.03 0.03 0.03 0.03 0.03 0.03 0.04 0.03 0.02 0.01 0.01 0.01 0.01 0.01 0.01
0.10 0.12 0.15 0.14 0.14 0.15 0.17 0.16 0.14 0.11 0.10 0.10 0.12 0.13 0.12 0.10 0.08 0.08 0.08 0.07 0.06 0.05 0.04 0.04 0.03 0.03 0.03 0.03 0.04 0.04 0.04 0.04 0.04 0.03 0.03 0.04 0.03 0.02 0.02 0.03 0.03 0.02 0.02
0.07 0.08 0.10 0.11 0.11 0.12 0.13 0.12 0.11 0.11 0.11 0.13 0.13 0.12 0.10 0.08 0.07 0.07 0.07 0.06 0.05 0.05 0.04 0.03 0.03 0.02 0.02 0.03 0.03 0.03 0.03 0.04 0.04 0.04 0.04 0.04 0.04 0.04 0.04 0.04 0.05 0.04 0.04
0.04 0.06 0.07 0.09 0.10 0.11 0.10 0.09 0.09 0.09 0.09 0.08 0.06 0.05 0.05 0.05 0.05 0.04 0.04 0.03 0.03 0.03 0.03 0.03 0.04 0.03 0.03 0.04 0.03 0.03 0.03 0.04 0.04 0.03 0.03 0.02 0.02 0.03 0.03 0.04 0.04 0.04 0.04
0.03 0.04 0.05 0.06 0.06 0.06 0.05 0.05 0.04 0.04 0.04 0.04 0.04 0.04 0.03 0.04 0.03 0.03 0.03 0.03 0.04 0.04 0.04 0.04 0.04 0.03 0.02 0.03 0.03 0.03 0.02 0.02 0.02 0.02 0.02 0.02 0.02 0.02 0.03 0.03 0.04 0.04 0.04
0.03 0.03 0.04 0.05 0.04 0.04 0.03 0.03 0.02 0.02 0.02 0.02 0.02 0.02 0.02 0.02 0.03 0.03 0.03 0.03 0.03 0.04 0.04 0.05 0.04 0.03 0.02 0.03 0.03 0.04 0.04 0.04 0.03 0.03 0.02 0.02 0.02 0.02 0.02 0.03 0.04 0.04 0.03
0.03 0.02 0.02 0.02 0.02 0.02 0.02 0.01 0.01 0.02 0.02 0.03 0.03 0.02 0.02 0.02 0.01 0.01 0.01 0.02 0.02 0.03 0.04 0.04 0.04 0.03 0.02 0.03 0.04 0.06 0.06 0.04 0.03 0.02 0.02 0.01 0.01 0.01 0.01 0.02 0.02 0.02 0.02
MSLP
1007.14 1007.84 1008.57 1009.27 1009.91 1010.45 1010.88 1011.21 1011.46 1011.66 1011.85 1012.05 1012.30 1012.58 1012.91 1013.27 1013.62 1013.97 1014.29 1014.57 1014.83 1015.06 1015.29 1015.53 1015.80 1016.12 1016.50 1016.95 1017.45 1018.01 1018.62 1019.23 1019.84 1020.41 1020.92 1021.34 1021.65 1021.85 1021.94 1021.93 1021.84 1021.70 1021.52
1007.17 1007.84 1008.53 1009.22 1009.86 1010.41 1010.88 1011.25 1011.54 1011.77 1011.98 1012.19 1012.43 1012.71 1013.02 1013.37 1013.73 1014.08 1014.41 1014.71 1014.98 1015.21 1015.43 1015.64 1015.86 1016.12 1016.44 1016.83 1017.29 1017.82 1018.41 1019.04 1019.68 1020.28 1020.83 1021.29 1021.65 1021.88 1022.01 1022.03 1021.98 1021.88 1021.76
1007.16 1007.81 1008.48 1009.15 1009.79 1010.36 1010.85 1011.26 1011.59 1011.85 1012.08 1012.31 1012.54 1012.81 1013.11 1013.45 1013.80 1014.16 1014.51 1014.83 1015.12 1015.36 1015.57 1015.77 1015.97 1016.19 1016.46 1016.80 1017.22 1017.71 1018.27 1018.88 1019.51 1020.13 1020.69 1021.17 1021.55 1021.81 1021.96 1022.02 1022.00 1021.95 1021.88
1007.08 1007.71 1008.37 1009.03 1009.67 1010.26 1010.78 1011.22 1011.59 1011.89 1012.15 1012.39 1012.63 1012.89 1013.18 1013.50 1013.85 1014.20 1014.56 1014.89 1015.19 1015.46 1015.69 1015.89 1016.08 1016.28 1016.52 1016.81 1017.18 1017.63 1018.15 1018.72 1019.32 1019.91 1020.46 1020.94 1021.32 1021.60 1021.77 1021.86 1021.89 1021.88 1021.86
1006.91 1007.55 1008.20 1008.87 1009.51 1010.11 1010.66 1011.13 1011.54 1011.88 1012.17 1012.44 1012.68 1012.94 1013.22 1013.52 1013.85 1014.20 1014.55 1014.88 1015.20 1015.48 1015.72 1015.94 1016.13 1016.33 1016.55 1016.81 1017.14 1017.54 1018.00 1018.52 1019.07 1019.61 1020.13 1020.59 1020.96 1021.25 1021.44 1021.56 1021.63 1021.67 1021.70
1006.69 1007.34 1008.01 1008.68 1009.32 1009.94 1010.51 1011.02 1011.46 1011.84 1012.17 1012.46 1012.73 1012.98 1013.25 1013.53 1013.83 1014.15 1014.48 1014.81 1015.12 1015.41 1015.67 1015.90 1016.10 1016.30 1016.51 1016.76 1017.04 1017.39 1017.80 1018.25 1018.74 1019.23 1019.70 1020.12 1020.48 1020.77 1020.98 1021.13 1021.24 1021.33 1021.41
1006.48 1007.15 1007.83 1008.49 1009.14 1009.77 1010.35 1010.89 1011.37 1011.79 1012.16 1012.48 1012.76 1013.02 1013.27 1013.52 1013.79 1014.08 1014.37 1014.68 1014.98 1015.26 1015.53 1015.77 1015.99 1016.19 1016.40 1016.63 1016.89 1017.19 1017.54 1017.93 1018.35 1018.77 1019.19 1019.57 1019.91 1020.18 1020.41 1020.59 1020.73 1020.87 1021.00
1006.33 1007.01 1007.68 1008.34 1008.99 1009.61 1010.21 1010.76 1011.27 1011.73 1012.13 1012.48 1012.77 1013.03 1013.27 1013.50 1013.73 1013.97 1014.23 1014.50 1014.78 1015.05 1015.32 1015.56 1015.79 1016.01 1016.22 1016.44 1016.68 1016.95 1017.24 1017.58 1017.93 1018.29 1018.65 1018.98 1019.28 1019.55 1019.77 1019.97 1020.14 1020.31 1020.49
1006.24 1006.93 1007.59 1008.23 1008.86 1009.47 1010.06 1010.62 1011.15 1011.63 1012.06 1012.43 1012.74 1013.00 1013.23 1013.43 1013.63 1013.83 1014.05 1014.29 1014.54 1014.80 1015.05 1015.31 1015.54 1015.77 1015.99 1016.21 1016.44 1016.68 1016.94 1017.22 1017.52 1017.82 1018.12 1018.41 1018.67 1018.91 1019.12 1019.31 1019.50 1019.69 1019.90
1006.22 1006.88 1007.51 1008.11 1008.71 1009.30 1009.87 1010.44 1010.97 1011.46 1011.90 1012.29 1012.61 1012.87 1013.09 1013.28 1013.45 1013.63 1013.81 1014.02 1014.25 1014.49 1014.75 1015.00 1015.25 1015.49 1015.72 1015.95 1016.17 1016.40 1016.63 1016.88 1017.13 1017.39 1017.64 1017.87 1018.09 1018.30 1018.49 1018.67 1018.85 1019.05 1019.26
1006.22 1006.82 1007.40 1007.96 1008.51 1009.06 1009.60 1010.15 1010.68 1011.17 1011.61 1012.00 1012.33 1012.60 1012.81 1013.00 1013.16 1013.32 1013.49 1013.68 1013.90 1014.14 1014.39 1014.65 1014.92 1015.17 1015.41 1015.65 1015.88 1016.10 1016.33 1016.55 1016.77 1016.99 1017.20 1017.40 1017.58 1017.75 1017.90 1018.06 1018.22 1018.40 1018.61
1006.18 1006.71 1007.21 1007.71 1008.20 1008.70 1009.21 1009.73 1010.23 1010.71 1011.15 1011.54 1011.87 1012.14 1012.36 1012.54 1012.71 1012.87 1013.05 1013.25 1013.47 1013.72 1013.98 1014.25 1014.53 1014.79 1015.05 1015.30 1015.54 1015.77 1015.99 1016.21 1016.41 1016.61 1016.80 1016.96 1017.11 1017.24 1017.36 1017.49 1017.62 1017.78 1017.97
1006.08 1006.51 1006.93 1007.34 1007.77 1008.22 1008.68 1009.16 1009.63 1010.08 1010.51 1010.88 1011.21 1011.48 1011.71 1011.91 1012.10 1012.28 1012.48 1012.70 1012.95 1013.21 1013.49 1013.78 1014.06 1014.34 1014.61 1014.87 1015.12 1015.35 1015.58 1015.80 1016.01 1016.20 1016.37 1016.52 1016.65 1016.76 1016.86 1016.95 1017.05 1017.18 1017.34
1005.89 1006.22 1006.55 1006.88 1007.25 1007.63 1008.04 1008.47 1008.90 1009.32 1009.71 1010.06 1010.38 1010.65 1010.90 1011.12 1011.34 1011.56 1011.80 1012.05 1012.33 1012.62 1012.92 1013.22 1013.51 1013.80 1014.07 1014.33 1014.58 1014.82 1015.06 1015.28 1015.50 1015.70 1015.88 1016.03 1016.16 1016.26 1016.34 1016.41 1016.49 1016.59 1016.73
1005.67 1005.88 1006.12 1006.38 1006.68 1007.00 1007.36 1007.73 1008.11 1008.47 1008.82 1009.15 1009.45 1009.72 1009.98 1010.23 1010.48 1010.75 1011.03 1011.32 1011.63 1011.95 1012.26 1012.57 1012.86 1013.14 1013.40 1013.65 1013.90 1014.14 1014.38 1014.62 1014.85 1015.07 1015.27 1015.44 1015.57 1015.68 1015.76 1015.83 1015.90 1015.99 1016.10
1005.46 1005.57 1005.73 1005.92 1006.15 1006.42 1006.72 1007.03 1007.34 1007.66 1007.96 1008.24 1008.51 1008.77 1009.04 1009.31 1009.59 1009.90 1010.22 1010.55 1010.88 1011.22 1011.54 1011.84 1012.11 1012.37 1012.61 1012.84 1013.06 1013.30 1013.53 1013.78 1014.03 1014.27 1014.49 1014.69 1014.85 1014.98 1015.08 1015.16 1015.24 1015.32 1015.42
1005.33 1005.36 1005.45 1005.58 1005.76 1005.97 1006.21 1006.46 1006.71 1006.95 1007.19 1007.43 1007.66 1007.90 1008.15 1008.43 1008.73 1009.06 1009.40 1009.76 1010.11 1010.44 1010.75 1011.03 1011.27 1011.49 1011.69 1011.89 1012.09 1012.30 1012.53 1012.77 1013.03 1013.29 1013.54 1013.77 1013.97 1014.13 1014.26 1014.36 1014.45 1014.54 1014.64
1005.33 1005.30 1005.34 1005.42 1005.55 1005.71 1005.89 1006.07 1006.25 1006.42 1006.60 1006.77 1006.95 1007.15 1007.38 1007.65 1007.95 1008.28 1008.62 1008.97 1009.31 1009.63 1009.91 1010.15 1010.35 1010.52 1010.68 1010.83 1010.99 1011.17 1011.38 1011.62 1011.88 1012.16 1012.43 1012.69 1012.92 1013.11 1013.27 1013.40 1013.51 1013.62 1013.73
1005.47 1005.41 1005.41 1005.45 1005.54 1005.65 1005.77 1005.88 1005.99 1006.08 1006.18 1006.28 1006.40 1006.55 1006.73 1006.96 1007.24 1007.54 1007.86 1008.19 1008.49 1008.77 1009.00 1009.20 1009.35 1009.47 1009.57 1009.67 1009.80 1009.95 1010.14 1010.37 1010.62 1010.90 1011.19 1011.46 1011.71 1011.93 1012.11 1012.27 1012.41 1012.54 1012.68
1005.75 1005.66 1005.63 1005.64 1005.69 1005.75 1005.80 1005.85 1005.88 1005.89 1005.90 1005.92 1005.97 1006.05 1006.18 1006.35 1006.57 1006.82 1007.09 1007.36 1007.62 1007.84 1008.02 1008.16 1008.25 1008.32 1008.38 1008.45 1008.54 1008.66 1008.83 1009.05 1009.30 1009.57 1009.85 1010.13 1010.39 1010.62 1010.82 1011.00 1011.16 1011.32 1011.48
1006.10 1005.99 1005.94 1005.92 1005.92 1005.93 1005.92 1005.89 1005.84 1005.78 1005.71 1005.65 1005.61 1005.61 1005.66 1005.76 1005.90 1006.08 1006.28 1006.48 1006.66 1006.82 1006.94 1007.02 1007.07 1007.10 1007.13 1007.17 1007.24 1007.36 1007.51 1007.71 1007.95 1008.22 1008.49 1008.76 1009.01 1009.24 1009.44 1009.63 1009.81 1009.99 1010.18
1006.46 1006.34 1006.26 1006.21 1006.16 1006.11 1006.04 1005.94 1005.82 1005.67 1005.52 1005.37 1005.25 1005.16 1005.12 1005.13 1005.18 1005.27 1005.38 1005.50 1005.60 1005.69 1005.75 1005.79 1005.80 1005.81 1005.83 1005.87 1005.94 1006.06 1006.22 1006.42 1006.65 1006.90 1007.16 1007.41 1007.64 1007.86 1008.06 1008.25 1008.43 1008.63 1008.85
1006.78 1006.64 1006.53 1006.43 1006.34 1006.23 1006.09 1005.92 1005.72 1005.50 1005.27 1005.05 1004.84 1004.67 1004.54 1004.45 1004.40 1004.40 1004.41 1004.44 1004.46 1004.48 1004.49 1004.50 1004.49 1004.50 1004.53 1004.59 1004.68 1004.82 1004.99 1005.20 1005.44 1005.68 1005.93 1006.16 1006.38 1006.57 1006.76 1006.93 1007.12 1007.32 1007.56
1007.03 1006.86 1006.71 1006.57 1006.42 1006.24 1006.04 1005.81 1005.55 1005.27 1004.97 1004.67 1004.39 1004.14 1003.92 1003.74 1003.60 1003.49 1003.41 1003.35 1003.30 1003.27 1003.23 1003.21 1003.21 1003.23 1003.28 1003.38 1003.51 1003.68 1003.89 1004.12 1004.37 1004.61 1004.85 1005.07 1005.26 1005.44 1005.61 1005.78 1005.96 1006.17 1006.42
1007.21 1007.01 1006.81 1006.62 1006.41 1006.18 1005.93 1005.64 1005.33 1004.99 1004.64 1004.29 1003.95 1003.63 1003.33 1003.07 1002.84 1002.65 1002.48 1002.34 1002.23 1002.14 1002.07 1002.04 1002.04 1002.08 1002.17 1002.30 1002.48 1002.70 1002.94 1003.20 1003.47 1003.72 1003.96 1004.17 1004.36 1004.52 1004.67 1004.83 1005.00 1005.21 1005.46
1007.35 1007.10 1006.86 1006.62 1006.36 1006.09 1005.79 1005.46 1005.11 1004.74 1004.36 1003.97 1003.58 1003.21 1002.86 1002.53 1002.24 1001.97 1001.73 1001.52 1001.35 1001.21 1001.12 1001.07 1001.08 1001.14 1001.26 1001.43 1001.64 1001.90 1002.18 1002.47 1002.75 1003.02 1003.26 1003.47 1003.65 1003.81 1003.96 1004.11 1004.28 1004.48 1004.73
Thickness
5789 5786 5784 5781 5778 5775 5772 5770 5767 5765 5763 5760 5758 5755 5753 5750 5748 5745 5742 5739 5737 5734 5733 5731 5728 5727 5724 5722 5720 5716 5712 5708 5700 5698 5698 5696 5693 5691 5688 5686 5683 5682 5680
5790 5786 5782 5779 5776 5773 5770 5768 5766 5763 5761 5759 5756 5753 5750 5747 5744 5741 5738 5736 5733 5730 5728 5726 5724 5724 5720 5718 5715 5712 5709 5706 5700 5694 5693 5691 5689 5687 5684 5681 5679 5677 5675
5789 5784 5780 5777 5774 5771 5768 5766 5764 5761 5759 5756 5754 5750 5747 5744 5741 5738 5735 5732 5730 5727 5725 5723 5721 5719 5715 5713 5711 5708 5705 5703 5698 5693 5689 5687 5685 5682 5678 5676 5674 5672 5670
5787 5783 5779 5776 5773 5770 5767 5764 5762 5759 5756 5753 5750 5747 5743 5740 5737 5734 5731 5728 5725 5723 5721 5719 5717 5715 5712 5710 5707 5704 5701 5697 5693 5688 5685 5681 5679 5677 5673 5670 5667 5666 5664
5785 5780 5777 5775 5772 5767 5764 5761 5758 5755 5752 5749 5745 5742 5739 5737 5734 5730 5727 5724 5720 5718 5716 5715 5713 5712 5710 5707 5704 5700 5697 5692 5687 5683 5680 5676 5672 5670 5668 5666 5662 5660 5658
5782 5777 5774 5771 5767 5763 5760 5756 5753 5749 5746 5743 5739 5736 5734 5732 5730 5726 5723 5719 5715 5712 5710 5709 5708 5706 5704 5702 5700 5698 5695 5689 5683 5679 5676 5672 5670 5668 5665 5662 5657 5653 5650
5778 5774 5770 5766 5762 5759 5756 5751 5747 5743 5740 5736 5733 5731 5728 5726 5724 5721 5718 5714 5710 5707 5705 5703 5703 5701 5698 5696 5694 5692 5689 5687 5683 5678 5673 5671 5668 5666 5662 5658 5654 5651 5649
5774 5770 5767 5762 5758 5753 5750 5746 5742 5738 5735 5731 5728 5725 5722 5720 5718 5715 5712 5708 5705 5702 5700 5698 5696 5693 5691 5689 5686 5684 5681 5680 5677 5674 5671 5669 5667 5664 5660 5656 5652 5647 5644
5769 5766 5763 5759 5754 5749 5745 5742 5738 5734 5731 5727 5723 5720 5716 5714 5713 5710 5706 5702 5698 5696 5694 5692 5690 5688 5686 5683 5679 5675 5673 5672 5671 5669 5666 5663 5661 5659 5655 5650 5645 5640 5636
5765 5763 5760 5756 5751 5747 5743 5739 5735 5731 5727 5723 5718 5715 5712 5709 5707 5704 5701 5697 5693 5690 5687 5686 5684 5682 5680 5676 5673 5669 5665 5664 5663 5661 5658 5656 5654 5652 5650 5646 5642 5636 5631
5762 5758 5754 5750 5747 5744 5739 5735 5730 5726 5721 5717 5713 5709 5707 5704 5701 5698 5695 5691 5688 5684 5681 5678 5677 5675 5673 5671 5668 5664 5662 5659 5656 5653 5651 5648 5647 5645 5643 5641 5638 5634 5628
5756 5752 5748 5745 5742 5739 5734 5729 5724 5720 5715 5710 5706 5703 5700 5698 5695 5692 5689 5686 5683 5678 5675 5673 5671 5669 5667 5664 5662 5659 5656 5653 5650 5647 5644 5641 5639 5638 5637 5635 5633 5630 5628
5749 5745 5742 5739 5736 5734 5729 5724 5719 5714 5709 5704 5700 5696 5693 5691 5689 5686 5682 5680 5677 5673 5670 5668 5665 5662 5660 5657 5655 5653 5649 5646 5643 5640 5638 5636 5635 5633 5631 5628 5626 5624 5622
5741 5737 5735 5731 5729 5726 5723 5719 5714 5709 5704 5700 5696 5692 5688 5685 5682 5679 5675 5672 5669 5666 5663 5660 5658 5655 5652 5650 5647 5645 5642 5639 5636 5634 5633 5631 5629 5626 5623 5621 5618 5616 5612
5733 5730 5726 5724 5721 5718 5715 5712 5709 5707 5703 5698 5694 5691 5685 5680 5679 5676 5671 5667 5664 5660 5656 5652 5649 5646 5643 5641 5639 5637 5634 5632 5629 5628 5626 5624 5622 5620 5617 5614 5610 5608 5604
5724 5722 5719 5717 5714 5710 5706 5702 5700 5698 5696 5693 5690 5686 5682 5679 5676 5671 5666 5662 5658 5654 5649 5645 5642 5639 5636 5634 5632 5629 5627 5626 5624 5622 5619 5617 5615 5612 5610 5607 5604 5601 5598
5717 5715 5713 5710 5707 5703 5700 5696 5691 5688 5687 5685 5682 5680 5676 5672 5669 5664 5659 5654 5650 5646 5642 5640 5636 5633 5631 5629 5626 5624 5622 5621 5620 5617 5614 5611 5609 5607 5603 5600 5597 5594 5592
5709 5707 5705 5702 5699 5696 5692 5689 5684 5680 5677 5674 5673 5671 5668 5665 5661 5657 5651 5645 5640 5638 5636 5634 5631 5629 5626 5623 5621 5619 5617 5616 5613 5611 5608 5605 5603 5600 5597 5594 5591 5589 5586
5699 5697 5696 5694 5691 5688 5684 5680 5676 5673 5669 5666 5664 5662 5660 5656 5652 5647 5642 5638 5636 5633 5630 5628 5626 5623 5621 5618 5616 5614 5612 5610 5608 5605 5602 5600 5597 5594 5591 5588 5585 5583 5580
5688 5688 5686 5683 5681 5678 5675 5672 5668 5665 5661 5657 5655 5653 5649 5644 5639 5636 5633 5631 5629 5627 5624 5622 5620 5618 5615 5612 5610 5607 5605 5603 5601 5599 5596 5594 5591 5589 5586 5583 5580 5577 5575
5678 5676 5676 5673 5670 5668 5665 5663 5660 5656 5653 5649 5647 5644 5639 5636 5633 5629 5626 5623 5622 5620 5618 5616 5615 5612 5609 5606 5604 5601 5599 5596 5594 5592 5590 5587 5585 5583 5580 5577 5574 5572 5569
5668 5667 5665 5663 5660 5658 5656 5653 5651 5648 5645 5642 5638 5635 5630 5628 5626 5622 5619 5618 5616 5614 5612 5610 5608 5606 5603 5601 5598 5595 5593 5590 5587 5585 5583 5580 5577 5576 5574 5571 5568 5565 5563
5659 5657 5655 5654 5651 5649 5646 5644 5642 5640 5637 5634 5631 5627 5623 5621 5619 5617 5614 5611 5609 5607 5605 5602 5600 5598 5596 5594 5593 5590 5588 5585 5582 5580 5576 5573 5571 5569 5566 5563 5561 5558 5556
5649 5647 5645 5643 5642 5639 5637 5634 5632 5631 5629 5626 5624 5621 5617 5614 5612 5610 5608 5605 5603 5600 5598 5595 5593 5591 5589 5587 5586 5584 5582 5579 5576 5574 5571 5567 5564 5562 5559 5556 5554 5551 5549
5640 5638 5636 5633 5632 5630 5627 5625 5623 5622 5620 5618 5616 5613 5611 5608 5605 5603 5601 5598 5596 5593 5590 5588 5585 5583 5582 5580 5578 5575 5573 5571 5569 5567 5564 5561 5558 5555 5553 5550 5547 5544 5542
5630 5629 5627 5625 5623 5621 5619 5616 5614 5613 5611 5609 5607 5604 5602 5600 5598 5596 5593 5590 5587 5584 5581 5579 5577 5575 5573 5572 5570 5568 5565 5563 5562 5559 5557 5554 5551 5549 5546 5543 5541 5538 5536